Precipitable_Water
0.64 0.67 0.69 0.66 0.66 0.66 0.69 0.67 0.68 0.75 0.75 0.74 0.78 0.86 0.95 0.91 1.01 0.90 0.86 0.80 0.77 0.73 0.72 0.74 0.77 0.98 0.98 0.76 0.69 0.84 0.73 0.59 0.53 0.47 0.39 0.37 0.38 0.37 0.33 0.35 0.36 0.33 0.36 0.40 0.40 0.38 0.36
0.66 0.63 0.68 0.67 0.66 0.66 0.67 0.70 0.68 0.69 0.71 0.71 0.74 0.84 0.92 0.96 0.92 1.04 1.10 1.08 0.98 0.82 0.77 0.84 0.96 1.06 0.87 0.57 0.84 0.80 0.66 0.52 0.46 0.46 0.40 0.38 0.35 0.33 0.30 0.31 0.29 0.32 0.33 0.34 0.36 0.34 0.35
0.70 0.65 0.66 0.67 0.65 0.66 0.66 0.70 0.69 0.69 0.70 0.74 0.82 0.82 0.87 0.88 0.90 0.97 1.06 1.12 1.05 1.00 0.97 0.99 1.03 0.94 0.73 0.65 0.82 0.75 0.61 0.50 0.49 0.48 0.37 0.37 0.35 0.26 0.28 0.25 0.31 0.27 0.22 0.26 0.28 0.28 0.27
0.74 0.69 0.65 0.66 0.66 0.64 0.65 0.70 0.67 0.68 0.72 0.79 0.83 0.80 0.84 0.87 0.87 0.90 0.95 1.05 1.07 1.06 1.05 1.08 1.03 0.88 0.65 0.82 0.80 0.66 0.59 0.48 0.50 0.49 0.42 0.41 0.36 0.26 0.24 0.26 0.23 0.18 0.19 0.14 0.23 0.25 0.27
0.79 0.73 0.69 0.66 0.67 0.64 0.62 0.65 0.71 0.70 0.73 0.77 0.82 0.81 0.86 0.90 0.91 0.89 0.89 0.94 1.02 1.06 1.08 1.08 0.93 0.81 0.61 0.82 0.63 0.65 0.59 0.45 0.43 0.44 0.45 0.43 0.35 0.27 0.23 0.16 0.15 0.17 0.13 0.15 0.19 0.27 0.26
0.84 0.80 0.73 0.69 0.64 0.66 0.63 0.61 0.66 0.69 0.71 0.73 0.77 0.79 0.84 0.87 0.86 0.88 0.84 0.85 0.86 0.92 0.88 0.91 0.88 0.66 0.68 0.60 0.68 0.64 0.60 0.51 0.41 0.38 0.36 0.36 0.32 0.25 0.23 0.17 0.10 0.13 0.15 0.18 0.17 0.24 0.26
0.81 0.84 0.82 0.73 0.68 0.63 0.65 0.62 0.59 0.65 0.69 0.67 0.69 0.71 0.81 0.81 0.84 0.85 0.83 0.74 0.63 0.61 0.66 0.57 0.60 0.58 0.61 0.68 0.69 0.57 0.58 0.47 0.43 0.36 0.27 0.33 0.26 0.22 0.24 0.24 0.22 0.19 0.17 0.16 0.20 0.26 0.23
0.80 0.82 0.85 0.83 0.74 0.65 0.60 0.63 0.59 0.59 0.63 0.64 0.63 0.63 0.68 0.79 0.78 0.82 0.82 0.65 0.64 0.67 0.48 0.58 0.60 0.60 0.64 0.66 0.49 0.50 0.54 0.37 0.35 0.28 0.32 0.28 0.25 0.31 0.32 0.28 0.24 0.21 0.17 0.17 0.20 0.25 0.23
0.76 0.79 0.84 0.85 0.83 0.74 0.60 0.57 0.60 0.56 0.56 0.59 0.59 0.59 0.60 0.68 0.71 0.70 0.71 0.71 0.84 0.76 0.48 0.50 0.57 0.53 0.55 0.57 0.47 0.47 0.51 0.42 0.33 0.28 0.27 0.23 0.27 0.32 0.28 0.26 0.22 0.23 0.19 0.19 0.18 0.22 0.25
0.73 0.76 0.80 0.82 0.85 0.82 0.74 0.58 0.57 0.61 0.53 0.53 0.55 0.56 0.57 0.61 0.53 0.59 0.55 0.73 0.79 0.76 0.39 0.41 0.49 0.53 0.55 0.57 0.44 0.54 0.54 0.44 0.35 0.28 0.27 0.25 0.30 0.27 0.24 0.23 0.25 0.18 0.28 0.26 0.23 0.21 0.15
0.69 0.72 0.77 0.80 0.85 0.85 0.83 0.72 0.57 0.57 0.60 0.54 0.54 0.51 0.55 0.55 0.49 0.45 0.56 0.70 0.71 0.55 0.19 0.40 0.44 0.59 0.53 0.48 0.46 0.46 0.55 0.46 0.35 0.32 0.29 0.25 0.27 0.26 0.23 0.24 0.28 0.24 0.31 0.29 0.29 0.27 0.26
0.65 0.70 0.76 0.78 0.82 0.88 0.87 0.84 0.69 0.53 0.57 0.59 0.57 0.53 0.51 0.46 0.52 0.57 0.64 0.64 0.50 0.26 0.19 0.32 0.40 0.41 0.43 0.46 0.47 0.48 0.47 0.48 0.46 0.35 0.35 0.34 0.39 0.34 0.32 0.33 0.35 0.37 0.33 0.32 0.33 0.28 0.17
0.64 0.67 0.71 0.73 0.76 0.84 0.90 0.91 0.82 0.67 0.52 0.56 0.58 0.56 0.51 0.51 0.39 0.59 0.60 0.43 0.22 0.17 0.32 0.28 0.31 0.37 0.37 0.36 0.38 0.40 0.38 0.36 0.31 0.25 0.26 0.31 0.32 0.37 0.37 0.32 0.37 0.33 0.26 0.15 0.13 0.13 0.10
0.62 0.66 0.68 0.71 0.72 0.78 0.88 0.93 0.90 0.78 0.64 0.45 0.53 0.56 0.54 0.52 0.53 0.56 0.41 0.22 0.14 0.22 0.24 0.31 0.33 0.33 0.28 0.32 0.31 0.33 0.32 0.29 0.37 0.31 0.25 0.21 0.18 0.29 0.36 0.32 0.28 0.28 0.23 0.12 0.07 0.08 0.10
0.63 0.66 0.68 0.71 0.75 0.79 0.86 0.91 0.89 0.87 0.76 0.59 0.46 0.51 0.50 0.53 0.53 0.49 0.25 0.15 0.17 0.22 0.28 0.27 0.29 0.25 0.25 0.29 0.30 0.29 0.26 0.26 0.31 0.33 0.21 0.20 0.20 0.33 0.34 0.36 0.32 0.25 0.19 0.27 0.17 0.18 0.13
0.63 0.65 0.69 0.73 0.81 0.86 0.92 0.94 0.89 0.89 0.83 0.73 0.42 0.39 0.45 0.58 0.56 0.33 0.19 0.16 0.20 0.28 0.30 0.28 0.20 0.23 0.19 0.23 0.23 0.22 0.22 0.27 0.24 0.30 0.31 0.23 0.14 0.27 0.29 0.33 0.34 0.29 0.35 0.20 0.22 0.12 0.10
0.64 0.67 0.73 0.79 0.83 0.87 0.92 0.95 0.92 0.88 0.86 0.78 0.58 0.24 0.45 0.61 0.49 0.22 0.14 0.18 0.23 0.29 0.30 0.24 0.20 0.19 0.19 0.19 0.21 0.20 0.20 0.26 0.30 0.29 0.33 0.28 0.18 0.21 0.28 0.23 0.22 0.28 0.25 0.28 0.27 0.23 0.18
0.70 0.74 0.76 0.79 0.81 0.86 0.91 0.96 0.96 0.89 0.88 0.76 0.58 0.30 0.42 0.53 0.25 0.26 0.19 0.23 0.28 0.28 0.35 0.31 0.31 0.26 0.24 0.25 0.25 0.27 0.27 0.32 0.41 0.39 0.30 0.34 0.26 0.17 0.22 0.33 0.37 0.36 0.31 0.33 0.25 0.23 0.28
0.77 0.78 0.79 0.82 0.82 0.85 0.90 0.96 0.97 0.89 0.88 0.76 0.55 0.50 0.48 0.37 0.16 0.21 0.28 0.27 0.31 0.29 0.32 0.32 0.31 0.34 0.35 0.31 0.27 0.33 0.35 0.44 0.45 0.41 0.37 0.38 0.30 0.21 0.24 0.33 0.40 0.35 0.38 0.38 0.36 0.33 0.24
0.77 0.79 0.81 0.85 0.87 0.87 0.89 0.95 0.98 0.91 0.85 0.78 0.59 0.43 0.50 0.44 0.29 0.23 0.23 0.24 0.25 0.36 0.33 0.35 0.32 0.34 0.30 0.26 0.29 0.23 0.24 0.31 0.35 0.33 0.36 0.35 0.24 0.17 0.11 0.15 0.23 0.21 0.25 0.30 0.30 0.23 0.21
0.83 0.86 0.90 0.93 0.93 0.92 0.91 0.95 0.99 0.92 0.85 0.74 0.64 0.53 0.55 0.44 0.42 0.27 0.24 0.23 0.22 0.22 0.31 0.32 0.26 0.26 0.23 0.18 0.19 0.18 0.22 0.24 0.29 0.32 0.31 0.28 0.15 0.17 0.16 0.17 0.18 0.16 0.16 0.19 0.18 0.18 0.15
0.89 0.94 0.98 1.01 1.01 0.99 0.98 0.97 0.99 0.94 0.87 0.69 0.57 0.59 0.61 0.55 0.55 0.50 0.35 0.22 0.20 0.23 0.24 0.21 0.20 0.22 0.24 0.18 0.18 0.15 0.20 0.22 0.20 0.29 0.28 0.31 0.17 0.19 0.14 0.15 0.16 0.13 0.14 0.15 0.15 0.17 0.16
0.92 0.97 1.00 1.03 1.04 1.03 1.05 1.02 1.01 0.98 0.89 0.71 0.70 0.69 0.64 0.59 0.57 0.50 0.47 0.42 0.32 0.29 0.27 0.28 0.27 0.24 0.20 0.21 0.28 0.29 0.30 0.28 0.28 0.25 0.25 0.26 0.23 0.17 0.11 0.16 0.15 0.08 0.09 0.11 0.13 0.14 0.13
0.94 0.98 0.98 1.01 1.04 1.05 1.07 1.07 1.05 1.02 0.94 0.85 0.77 0.67 0.55 0.49 0.55 0.56 0.55 0.54 0.49 0.47 0.36 0.33 0.33 0.28 0.31 0.38 0.35 0.31 0.29 0.27 0.27 0.27 0.31 0.24 0.24 0.23 0.15 0.16 0.07 0.10 0.16 0.16 0.15 0.15 0.18
0.94 0.96 0.97 1.00 1.03 1.01 1.03 1.04 1.06 1.04 1.02 0.88 0.85 0.67 0.54 0.47 0.53 0.55 0.57 0.56 0.64 0.58 0.55 0.53 0.52 0.48 0.47 0.37 0.26 0.19 0.16 0.18 0.21 0.24 0.27 0.31 0.26 0.19 0.14 0.14 0.14 0.11 0.15 0.15 0.13 0.11 0.16
0.91 0.91 0.91 0.94 0.98 0.97 0.96 0.97 0.99 1.02 1.02 0.94 0.88 0.84 0.65 0.49 0.44 0.53 0.53 0.56 0.55 0.56 0.58 0.58 0.64 0.67 0.62 0.50 0.37 0.22 0.14 0.13 0.14 0.20 0.30 0.31 0.31 0.22 0.18 0.13 0.08 0.11 0.17 0.22 0.19 0.08 0.12
0.87 0.87 0.85 0.85 0.90 0.89 0.89 0.90 0.93 0.94 0.96 0.91 0.84 0.87 0.71 0.56 0.59 0.57 0.52 0.53 0.59 0.58 0.54 0.59 0.62 0.60 0.65 0.50 0.42 0.40 0.38 0.38 0.26 0.19 0.19 0.21 0.24 0.19 0.18 0.17 0.17 0.19 0.22 0.24 0.10 0.09 0.16
0.86 0.88 0.87 0.88 0.87 0.90 0.88 0.89 0.90 0.89 0.92 0.87 0.80 0.84 0.70 0.57 0.59 0.62 0.63 0.59 0.60 0.59 0.54 0.59 0.58 0.61 0.58 0.52 0.47 0.43 0.39 0.39 0.38 0.39 0.39 0.32 0.24 0.21 0.22 0.18 0.12 0.24 0.24 0.16 0.17 0.20 0.23
0.81 0.81 0.84 0.87 0.90 0.89 0.88 0.89 0.90 0.89 0.89 0.87 0.69 0.82 0.80 0.61 0.59 0.66 0.64 0.67 0.69 0.69 0.60 0.60 0.58 0.57 0.56 0.50 0.49 0.47 0.42 0.44 0.43 0.36 0.48 0.38 0.40 0.34 0.35 0.26 0.27 0.33 0.30 0.28 0.26 0.26 0.29
Wind_Speed
38 40 42 43 43 45 45 42 38 36 34 36 35 36 34 32 34 21 18 15 16 25 27 29 31 30 24 24 22 25 24 24 26 26 25 24 23 21 19 18 16 15 16 14 15 13 14
38 39 41 43 43 44 45 44 40 38 37 38 35 34 32 29 30 29 25 22 27 31 33 32 31 22 23 23 22 23 24 24 25 25 23 23 23 20 18 16 15 15 14 13 12 13 13
37 39 40 42 43 43 44 45 41 40 40 40 38 32 31 29 28 27 28 28 34 36 34 26 22 25 26 20 21 22 23 23 23 24 23 21 22 18 19 17 17 15 14 13 11 12 11
39 39 39 41 42 43 43 45 43 41 41 41 41 35 33 32 30 27 27 31 31 28 26 23 26 27 21 18 19 22 23 22 22 21 21 20 19 18 17 17 14 13 13 13 13 12 12
39 40 39 39 41 42 42 42 43 42 42 41 40 38 34 32 30 26 26 27 24 25 27 22 23 22 18 16 18 19 21 21 20 19 19 18 18 17 16 16 14 12 14 13 12 12 12
39 40 39 38 39 40 41 40 40 40 40 39 38 37 35 31 27 24 22 22 24 22 20 21 18 16 16 15 16 17 19 19 19 18 17 15 15 15 14 14 16 15 13 12 13 13 13
38 39 40 38 38 39 40 40 38 38 37 36 33 32 35 36 33 23 19 18 16 19 20 19 16 19 15 13 16 16 17 18 18 16 15 14 13 14 14 13 13 13 13 13 14 13 15
36 38 40 40 38 37 38 38 39 37 36 34 32 28 26 29 32 35 27 21 19 20 19 17 17 15 14 13 14 12 15 16 16 15 14 12 13 13 13 12 11 11 12 13 15 15 16
34 36 38 39 39 37 36 36 37 37 35 33 29 26 23 22 24 26 29 27 22 17 16 15 12 12 10 11 11 9 13 15 15 14 13 14 14 13 12 11 11 11 12 14 15 17 17
32 33 35 38 38 37 36 35 35 36 35 32 29 26 21 18 19 19 19 18 17 16 15 11 10 9 7 8 9 8 10 14 13 15 13 12 12 12 11 11 12 13 14 14 15 15 17
29 31 33 35 38 37 36 35 33 33 33 32 29 26 22 19 15 14 13 12 11 8 10 8 8 8 7 7 9 6 7 10 13 13 12 13 12 11 11 12 12 12 13 14 15 15 16
27 29 31 33 35 36 36 34 33 30 29 29 28 26 23 19 17 15 12 9 9 11 9 8 8 8 10 10 8 7 8 9 11 10 9 11 12 11 12 12 11 12 12 12 13 13 14
26 28 30 32 33 35 35 34 32 29 27 25 25 24 23 20 17 14 13 11 10 11 9 8 10 10 11 9 9 9 8 7 7 8 8 8 9 10 11 10 11 10 9 11 11 10 13
24 26 28 30 31 33 35 34 31 28 25 22 20 22 22 20 18 17 14 13 16 9 8 8 8 8 8 7 7 6 6 6 6 6 7 8 7 9 9 9 10 9 10 10 12 11 14
24 25 27 29 30 31 33 33 31 27 24 19 16 17 20 20 17 16 16 16 13 11 11 11 9 8 6 5 5 5 5 6 5 6 6 7 7 8 9 9 9 9 10 10 9 12 15
23 25 26 28 29 30 32 32 31 26 24 17 13 13 16 16 16 15 15 14 13 12 13 12 10 9 6 6 6 4 3 4 4 5 4 6 4 7 8 9 9 10 9 9 10 11 13
24 25 26 27 28 28 30 31 30 26 24 17 12 9 12 13 13 15 14 12 12 11 10 9 8 8 8 6 6 5 4 3 3 3 4 4 4 6 7 10 10 9 10 9 9 8 7
24 25 26 27 27 27 28 29 28 26 23 16 11 8 9 9 9 10 11 11 10 10 9 9 9 8 8 8 7 5 5 4 5 4 3 2 3 5 7 6 7 7 8 7 5 6 6
25 25 26 26 26 26 26 27 27 25 23 16 9 7 7 6 6 7 7 7 7 7 7 7 6 6 6 6 5 5 4 4 5 4 3 3 1 1 1 1 4 6 8 7 6 5 8
26 26 27 26 26 25 24 25 24 23 22 15 10 7 7 6 4 4 3 3 4 3 4 4 4 5 4 3 2 3 2 2 2 1 1 1 2 4 4 3 3 6 7 9 9 8 8
27 28 28 27 25 24 23 22 22 21 20 15 11 7 6 5 5 3 3 1 2 2 2 1 2 0 1 1 1 1 1 1 1 2 2 3 6 6 10 12 12 14 14 13 17 18 13
28 29 27 25 24 22 21 20 19 19 17 13 11 8 8 6 5 4 5 5 5 4 3 4 4 3 4 3 3 2 2 3 4 3 3 5 5 5 9 11 11 15 18 19 21 21 24
29 27 25 24 22 21 19 18 17 18 15 12 11 10 8 8 6 6 6 6 6 6 7 7 7 6 7 9 9 9 8 8 7 6 7 6 6 7 8 7 11 12 12 15 12 14 19
30 27 25 23 21 19 18 18 17 17 14 12 11 10 9 8 7 8 8 9 9 9 10 9 9 9 10 9 10 11 12 13 12 13 11 9 8 8 10 10 6 6 6 7 12 12 16
31 28 25 24 22 20 19 18 18 17 15 14 12 11 10 10 10 11 11 12 12 12 12 13 13 13 12 12 12 12 11 11 11 12 13 12 10 10 9 9 15 12 8 7 9 12 14
30 28 26 24 23 22 21 20 19 18 17 15 14 13 12 12 11 11 11 11 13 13 14 13 13 13 12 12 12 13 12 12 11 9 9 10 11 11 10 10 10 9 8 9 10 12 9
30 28 26 24 23 23 22 22 20 19 19 17 17 16 15 16 15 13 15 14 14 14 15 16 15 14 15 14 14 15 16 15 14 12 12 12 15 18 17 16 17 19 16 14 12 12 10
29 27 26 26 24 23 23 23 22 22 21 20 20 20 19 19 21 21 18 17 18 18 17 17 17 17 17 17 17 17 16 16 15 15 14 15 14 15 18 16 19 14 12 13 15 16 20
29 28 26 25 25 25 25 25 24 24 24 23 23 23 23 23 24 25 27 28 28 27 24 23 22 19 19 18 19 19 20 19 19 20 18 19 20 19 21 21 21 22 24 27 29 29 29
Wind_Direction
17 17 16 16 16 16 17 18 18 18 18 16 15 17 20 28 34 76 76 109 145 161 164 163 163 166 173 167 175 180 182 183 183 183 185 186 188 190 192 195 200 202 208 212 217 223 227
18 18 18 17 17 18 19 19 20 20 17 14 15 19 27 35 43 54 70 92 116 134 142 148 154 158 163 165 176 175 177 176 178 180 183 187 191 191 190 196 199 202 200 205 215 224 232
19 19 19 19 19 19 20 21 22 22 22 24 24 29 35 41 48 59 72 90 113 121 126 133 153 147 141 153 162 168 168 171 175 178 180 184 187 193 192 193 198 201 205 211 222 227 231
21 20 20 20 20 21 22 24 25 26 28 29 32 39 45 50 56 67 84 99 108 112 117 113 131 142 144 144 152 160 164 164 168 171 175 179 181 185 192 192 200 204 210 214 227 231 234
22 21 20 21 21 22 23 25 28 30 31 34 37 44 49 52 55 69 91 98 104 109 107 104 118 133 141 143 149 158 164 167 169 169 173 179 184 188 193 196 204 214 213 218 226 231 239
22 22 21 21 21 22 23 24 26 29 30 34 38 45 47 49 57 71 89 103 99 110 105 101 100 122 131 141 156 160 164 168 169 175 178 181 186 189 196 201 210 211 213 223 230 243 245
22 22 21 21 21 21 23 24 24 26 29 32 37 44 50 53 57 65 87 104 111 103 97 98 98 106 118 129 147 158 167 170 173 174 181 188 181 191 199 207 208 211 219 227 238 245 254
20 21 21 21 21 20 21 23 24 26 28 31 36 42 49 55 60 62 79 91 105 114 99 94 101 102 108 123 133 148 163 171 175 179 187 187 191 203 210 208 212 223 228 242 248 250 259
18 19 20 21 21 20 21 22 23 25 27 30 34 39 46 56 63 67 73 87 95 100 99 92 97 97 113 117 129 147 166 172 173 180 187 187 200 210 207 216 221 234 232 244 251 265 263
15 17 18 19 19 20 20 21 22 24 27 30 33 38 44 56 62 67 74 81 87 91 96 78 82 91 111 140 139 148 165 178 180 182 188 192 207 206 211 220 230 236 242 251 261 268 264
12 14 15 16 17 18 19 19 20 22 25 29 33 38 46 52 59 66 71 73 77 85 84 74 81 96 93 137 157 157 165 170 180 186 196 208 207 211 217 228 237 242 250 258 263 267 274
8 11 12 13 13 15 16 16 17 18 21 26 31 36 41 48 53 56 59 70 76 76 84 82 94 96 104 96 119 148 150 157 177 185 194 203 212 220 225 233 240 246 254 266 267 267 271
3 5 8 9 9 11 11 11 12 14 16 21 29 34 39 43 47 51 57 64 75 88 97 98 96 95 103 95 101 111 126 141 165 173 200 212 222 229 230 235 244 247 256 267 273 270 259
357 359 1 3 5 6 7 7 8 10 14 19 27 34 37 41 46 51 57 65 72 89 98 99 96 97 96 94 96 105 122 129 145 162 176 189 228 215 222 230 233 244 241 242 255 265 273
349 353 355 357 359 1 3 4 5 6 9 13 22 29 35 38 44 51 61 65 88 94 95 94 92 89 87 90 106 108 118 147 164 174 174 193 226 222 224 231 234 239 250 250 261 270 277
342 346 349 352 355 357 360 2 2 3 4 7 14 24 29 35 42 51 60 73 80 92 97 92 81 83 88 91 90 106 146 159 170 186 195 208 212 229 231 236 246 244 242 261 272 275 281
335 339 342 346 348 352 355 358 359 -0 1 2 8 18 20 28 41 51 64 68 80 84 83 84 90 92 91 89 98 98 105 114 157 184 205 205 220 242 236 236 233 244 254 257 261 254 258
328 332 336 339 343 346 350 354 356 358 358 0 3 10 11 22 38 46 58 68 75 79 74 77 82 86 97 105 102 94 106 111 127 126 145 192 206 226 230 245 234 235 230 222 231 243 249
321 324 328 332 336 340 345 350 353 356 357 356 359 359 2 11 33 40 51 64 63 70 72 74 73 81 85 99 89 105 106 86 123 121 123 138 128 80 342 264 243 237 232 231 240 251 241
315 319 321 324 328 332 338 344 349 353 356 357 354 353 352 10 17 42 39 36 51 50 50 62 60 63 63 67 77 70 84 96 162 176 179 173 229 230 228 255 255 247 242 234 233 245 256
309 313 315 317 319 324 329 336 344 348 354 357 355 345 339 334 341 344 335 320 338 331 335 342 5 297 96 49 24 325 315 345 321 272 276 270 273 271 273 270 266 261 257 248 239 245 246
305 309 311 313 315 317 320 328 337 342 346 355 357 344 337 323 318 310 313 283 267 280 275 292 276 316 261 266 251 274 288 281 271 287 259 283 290 298 291 287 272 270 260 251 251 252 258
300 303 306 310 313 315 315 319 325 335 337 341 344 343 333 316 312 308 291 288 286 274 275 271 271 280 277 269 270 275 274 278 271 262 260 267 280 303 286 303 298 285 262 238 249 252 247
294 294 297 301 305 310 313 313 315 322 326 322 327 330 331 320 306 290 294 284 278 277 280 280 271 274 283 285 287 285 281 274 267 264 261 260 268 278 286 307 287 271 286 274 246 265 248
289 285 288 291 294 299 302 308 310 311 312 312 308 313 315 313 305 300 289 287 289 281 276 276 274 275 278 284 288 292 289 285 275 269 257 257 258 273 273 277 286 294 294 265 258 283 252
285 280 281 284 286 290 294 299 302 302 302 301 299 298 298 304 298 301 301 296 289 286 287 280 283 279 277 279 279 274 274 278 276 278 280 257 260 251 265 276 276 284 294 282 283 282 275
279 277 276 279 282 286 288 292 295 297 297 296 293 291 291 291 291 290 290 291 290 287 282 285 283 280 276 274 272 270 273 269 270 264 264 261 262 254 255 265 275 274 273 281 277 269 279
272 272 273 274 278 282 286 286 289 291 294 293 292 289 289 287 288 284 284 284 287 284 281 279 284 278 275 271 271 272 270 269 272 266 263 258 257 260 254 264 276 266 275 256 261 276 284
266 266 270 272 276 280 284 285 284 287 290 289 290 292 289 287 287 287 284 280 276 275 276 274 275 274 270 272 271 274 272 272 270 273 268 268 260 263 254 263 275 272 273 272 276 278 282